Location: Madingley
(52.2167°N, 0.0500°E)
Time: 11:32:44
(UTC+00:00)

Cosmos 1271 Rocket - Pass Details

Date: 15 May 2026
Orbit: 421 x 447 km, 81.2° (Epoch: 9 June)

Event Time Altitude Azimuth Distance (km) Brightness Sun altitude
Exits shadow 23:40:27 27° 250° (WSW) 889 3.7 -18.6°
Maximum altitude 23:41:34 34° 289° (WNW) 746 3.7 -18.7°
Drops below altitude 10° 23:44:41 10° 357° (N) 1,554 6.4 -18.7°
Sets 23:46:52 0° 7° (N) 2,422 7.7 -18.7°
